Regional Weather Roundup
Issued by NWS

Home | Current Version | Previous Version | Graphics & Text | Print | Product List | Glossary Off
Versions: 1 2 3 4 5 6 7 8 9 10 11 12 13 14 15 16 17 18 19 20 21 22 23 24 25 26 27 28 29 30 31 32 33 34 35 36 37 38 39 40 41 42 43 44 45 46 47 48 49 50

000
ASUS43 KMKX 200011
RWRWI

WISCONSIN REGIONAL WEATHER ROUNDUP
NATIONAL WEATHER SERVICE MILWAUKEE/SULLIVAN WI
600 PM CST FRI DEC 19 2014

NOTE: "FAIR" INDICATES FEW OR NO CLOUDS BELOW 12,000 FEET WITH NO
SIGNIFICANT WEATHER AND/OR OBSTRUCTIONS TO VISIBILITY.

WIZ001-002-006>008-014>016-023>028-200100-
NORTHWEST WISCONSIN

CITY           SKY/WX    TMP DP  RH WIND       PRES   REMARKS
SUPERIOR ARPT  CLOUDY    27  23  84 CALM      30.22S
6HR MIN TEMP:  25; 6HR MAX TEMP:  28;

ASHLAND        CLOUDY    25  22  88 CALM      30.24S
6HR MIN TEMP:  24; 6HR MAX TEMP:  25; 6HR PCP: TRACE;

HAYWARD        CLOUDY    25  20  81 S6        30.21R WCI  18
6HR MIN TEMP:  23; 6HR MAX TEMP:  25; 6HR PCP: TRACE;

SIREN          CLOUDY    27  21  80 S7        30.21R WCI  19
6HR MIN TEMP:  25; 6HR MAX TEMP:  27;

CUMBERLAND     CLOUDY    27  21  80 SE9       30.21S WCI  17
RICE LAKE      CLOUDY    27  22  81 SE8       30.23S WCI  18
6HR MIN TEMP:  26; 6HR MAX TEMP:  27;

CHETEK         CLOUDY    26  22  84 SE7       30.23S WCI  18
6HR MIN TEMP:  25; 6HR MAX TEMP:  26;

LADYSMITH      CLOUDY    26  22  87 S5        30.25R WCI  20
6HR MIN TEMP:  25; 6HR MAX TEMP:  26;

EAU CLAIRE     CLOUDY    28  19  69 S9        30.25R WCI  19
6HR MIN TEMP:  26; 6HR MAX TEMP:  28;

MENOMONIE      CLOUDY    28  21  75 SE8       30.24S WCI  20
6HR MIN TEMP:  27; 6HR MAX TEMP:  28;

NEW RICHMOND   CLOUDY    27  24  88 SE8       30.21S WCI  18
6HR MIN TEMP:  26; 6HR MAX TEMP:  27;

OSCEOLA        CLOUDY    28  24  85 SE9       30.23S WCI  19
6HR MIN TEMP:  26; 6HR MAX TEMP:  28;

$$

WIZ003>005-009-010-017-018-200100-
NORTH CENTRAL WISCONSIN

CITY           SKY/WX    TMP DP  RH WIND       PRES   REMARKS
MANITOWISH WTR CLOUDY    21  19  89 SW3       30.20S
6HR MIN TEMP:  20; 6HR MAX TEMP:  22;

ARBOR VITAE    CLOUDY    22  18  86 CALM      30.20S
6HR MIN TEMP:  22; 6HR MAX TEMP:  23;

WOODRUFF       CLOUDY    22  18  86 CALM      30.20S
6HR MIN TEMP:  22; 6HR MAX TEMP:  23;

RHINELANDER    CLOUDY    21  16  81 SW3       30.21S
6HR MIN TEMP:  19; 6HR MAX TEMP:  25;

EAGLE RIVER    CLOUDY    16  15  95 CALM      30.20S
6HR MIN TEMP:  15; 6HR MAX TEMP:  25;

LAND O LAKES   PTCLDY    15  13  92 CALM      30.21S
6HR MIN TEMP:  15; 6HR MAX TEMP:  25;

PHILLIPS       CLOUDY    22  20  93 S6        30.21S WCI  14
6HR MIN TEMP:  22; 6HR MAX TEMP:  23;

TOMAHAWK       CLOUDY    21  17  86 CALM      30.23S
6HR MIN TEMP:  20; 6HR MAX TEMP:  25;

MEDFORD        CLOUDY    22  20  93 S7        30.23R WCI  13
6HR MIN TEMP:  21; 6HR MAX TEMP:  22;

MERRILL        CLOUDY    22  19  87 SW5       30.24S WCI  16
6HR MIN TEMP:  22; 6HR MAX TEMP:  26;

$$

WIZ029-030-035-036-043>047-200100-
CENTRAL WISCONSIN

CITY           SKY/WX    TMP DP  RH WIND       PRES   REMARKS
WAUSAU         PTCLDY    22  18  85 SW5       30.24R WCI  16
6HR MIN TEMP:  22; 6HR MAX TEMP:  27;

MOSINEE        CLOUDY    23  21  93 SW6       30.26S WCI  16
MARSHFIELD     CLOUDY    24  19  81 S6        30.25S WCI  17
6HR MIN TEMP:  23; 6HR MAX TEMP:  24;

STEVENS POINT  CLOUDY    23  19  83 SW6       30.27S WCI  16
6HR MIN TEMP:  21; 6HR MAX TEMP:  27;

WAUPACA        CLEAR     26  19  76 SW3       30.29S
6HR MIN TEMP:  26; 6HR MAX TEMP:  33;

WAUTOMA        CLOUDY    27  21  77 S3        30.30S
6HR MIN TEMP:  26; 6HR MAX TEMP:  30;

WISC RAPIDS    CLOUDY    24  19  81 S6        30.29S WCI  17
6HR MIN TEMP:  24; 6HR MAX TEMP:  25;

CAMP DOUGLAS   CLOUDY    26  25  95 SE6       30.27F WCI  19
6HR MIN TEMP:  25; 6HR MAX TEMP:  26;

$$

WIZ011>013-019>022-031-037>040-048>050-200100-
NORTHEAST WISCONSIN

CITY           SKY/WX    TMP DP  RH WIND       PRES   REMARKS
ANTIGO         CLEAR     18  15  88 SW5       30.24R WCI  11
6HR MIN TEMP:  18; 6HR MAX TEMP:  27;

SHAWANO        CLEAR     27  20  74 CALM      30.29R
6HR MIN TEMP:  27; 6HR MAX TEMP:  32;

OCONTO         CLEAR     20  20  99 CALM      30.30R
6HR MIN TEMP:  20; 6HR MAX TEMP:  31;

STURGEON BAY   CLEAR     23  18  80 CALM      30.31R
6HR MIN TEMP:  23; 6HR MAX TEMP:  28;

GREEN BAY      PTCLDY    27  21  78 S3        30.30R
6HR MIN TEMP:  27; 6HR MAX TEMP:  31;

MANITOWOC      CLOUDY    30  23  75 NW3       30.31R
6HR MIN TEMP:  30; 6HR MAX TEMP:  32;

APPLETON       PTCLDY    27  18  69 VRB5      30.29R WCI  21
CLINTONVILLE   CLEAR     23  19  86 S3        30.29R
OSHKOSH        CLOUDY    27  18  69 W3        30.30S
6HR MIN TEMP:  27; 6HR MAX TEMP:  30;

$$

WIZ032>034-041-042-053>061-200100-
SOUTHWEST WISCONSIN

CITY           SKY/WX    TMP DP  RH WIND       PRES   REMARKS
LA CROSSE      CLOUDY    30  21  69 S8        30.27F WCI  22
6HR MIN TEMP:  30; 6HR MAX TEMP:  31;

SPARTA         CLOUDY    29  20  69 CALM      30.28S
6HR MIN TEMP:  28; 6HR MAX TEMP:  31;

VIROQUA        CLOUDY    28  22  80 CALM      30.24F
6HR MIN TEMP:  27; 6HR MAX TEMP:  28;

BOSCOBEL       CLOUDY    30  21  69 S3        30.29F
6HR MIN TEMP:  29; 6HR MAX TEMP:  31;

PRAIRIE DU CHI CLOUDY    29  21  71 E3        30.27F
6HR MIN TEMP:  28; 6HR MAX TEMP:  30;

PLATTEVILLE    CLOUDY    29  22  75 CALM      30.26F
6HR MIN TEMP:  27; 6HR MAX TEMP:  29;

$$

WIZ056-057-062-063-064-067-068-200100-
SOUTH CENTRAL WISCONSIN

CITY           SKY/WX    TMP DP  RH WIND       PRES   REMARKS
REEDSBURG      CLOUDY    25  21  84 CALM      30.28F
6HR MIN TEMP:  24; 6HR MAX TEMP:  26;

BARABOO/DELLS  CLOUDY    25  20  82 SE5       30.28F WCI  19
6HR MIN TEMP:  24; 6HR MAX TEMP:  25;

LONE ROCK      CLOUDY    31  20  63 E7        30.29F WCI  24
6HR MIN TEMP:  30; 6HR MAX TEMP:  32;

MINERAL POINT  CLOUDY    30  23  74 CALM      30.25F
MADISON        CLOUDY    27  21  78 CALM      30.30S
6HR MIN TEMP:  26; 6HR MAX TEMP:  27; 6HR PCP: TRACE;

MIDDLETON      CLOUDY    28  21  75 CALM      30.29F
6HR MIN TEMP:  27; 6HR MAX TEMP:  28;

WATERTOWN      CLOUDY    26  19  77 SW3       30.30S
6HR MIN TEMP:  25; 6HR MAX TEMP:  28;

MONROE         CLOUDY    27  23  86 CALM      30.26F
JANESVILLE     CLOUDY    28  21  74 CALM      30.30F
$$

WIZ051-052-058>065-066-070>072-200100-
SOUTHEAST WISCONSIN

CITY           SKY/WX    TMP DP  RH WIND       PRES   REMARKS
MILWAUKEE      MOCLDY    29  18  63 SW7       30.32R WCI  22
6HR MIN TEMP:  29; 6HR MAX TEMP:  31;

WAUKESHA       CLOUDY    27  19  74 SW5       30.31R WCI  21
MILWAUKEE/TIMM CLOUDY    30  18  59 SW7       30.31S WCI  23
RACINE         CLOUDY    28  19  69 SW6       30.33S WCI  22
6HR MIN TEMP:  28; 6HR MAX TEMP:  32;

BURLINGTON     CLOUDY    26  19  77 CALM      30.30F
6HR MIN TEMP:  26; 6HR MAX TEMP:  27;

KENOSHA        CLOUDY    28  21  75 NW3       30.30F
6HR MIN TEMP:  28; 6HR MAX TEMP:  30;

FOND DU LAC    CLOUDY    28  19  69 W3        30.30S
6HR MIN TEMP:  28; 6HR MAX TEMP:  30;

SHEBOYGAN      CLOUDY    29  21  72 CALM      30.30R
6HR MIN TEMP:  29; 6HR MAX TEMP:  31;

WEST BEND      CLOUDY    30  21  69 CALM      30.29S
JUNEAU         CLOUDY    26  20  77 SW5       30.30F WCI  20
6HR MIN TEMP:  26; 6HR MAX TEMP:  28;

$$

LSZ147-162-200100-
LAKE SUPERIOR

STATION/POSITION TIME  TEMP    WIND        PRES    WAVE
                       AIR SEA DIR/SP/G            HT/PER
                 (UTC) (F)     (DEG/KT/KT) (MB)    (FT/S)
DEVILS ISLAND    0000   26     220/  5/  7 1025.1F
PORT WING        2300   26     110/  2/  3 1023.7S
SAXON HARBOR     2340   26        CALM     1024.0S
$$

LMZ867-665-643>646-200100-
LAKE MICHIGAN

STATION/POSITION TIME  TEMP    WIND        PRES    WAVE


USA.gov is the U.S. government's official web portal to all federal, state and local government web resources and services.